Wind_Speed
17 17 16 16 16 15 15 15 15 13 13 12 11 10 9 9 7 6 6 5 5 5 6 6 6 6 5 5 5 5 5 5 6 6 6 7 7 7 8 8 8 9 10
16 16 16 16 16 15 15 15 14 14 14 13 12 11 10 9 9 7 7 5 5 6 7 7 7 6 6 6 6 7 6 7 7 7 7 8 8 9 9 9 10 11 11
14 14 14 14 14 15 15 15 15 15 14 14 14 13 11 11 10 9 8 7 6 7 7 7 7 7 7 7 7 7 7 8 8 9 9 9 10 10 11 11 12 12 13
13 13 13 13 13 14 14 14 14 15 14 14 15 14 13 12 11 10 9 9 8 8 8 8 7 8 8 8 8 8 8 9 9 10 10 11 11 11 12 13 13 13 14
12 12 12 12 12 13 14 14 15 14 14 14 14 14 13 13 12 11 11 10 10 10 9 9 8 8 9 9 9 10 10 10 10 11 11 12 12 12 13 13 14 14 15
11 11 11 12 12 12 13 14 14 14 14 14 15 14 13 13 13 12 12 11 11 11 10 10 9 9 9 10 10 11 11 12 12 11 11 12 13 13 14 14 14 15 15
9 10 10 11 11 12 13 14 14 14 14 15 15 15 14 14 14 13 13 12 12 11 11 10 10 10 10 10 11 11 12 12 12 13 13 14 14 14 15 15 15 16 16
8 9 10 10 10 11 12 13 14 14 15 15 15 15 14 14 14 14 13 13 13 13 12 12 11 11 11 11 12 12 12 13 13 14 14 14 15 15 16 16 16 16 16
9 8 9 10 10 11 12 13 13 14 15 15 15 15 15 14 14 14 13 13 14 13 13 13 13 13 13 13 13 13 13 13 13 13 14 14 15 15 16 16 16 16 15
10 10 10 10 10 11 12 13 14 14 15 15 16 15 15 14 14 14 14 14 14 14 14 13 14 14 14 14 13 13 13 13 13 13 14 14 14 14 15 16 16 16 17
10 10 10 11 11 12 13 14 15 15 15 15 16 16 15 14 14 15 14 14 14 15 15 14 14 14 14 14 14 13 13 13 13 13 14 14 15 16 16 16 16 16 17
12 11 12 12 13 13 14 14 16 16 15 15 16 17 16 15 15 16 15 16 15 15 15 15 15 14 14 14 14 14 13 13 12 13 13 14 14 14 14 15 16 17 18
15 13 13 13 13 14 14 15 16 16 16 16 16 16 16 16 16 16 16 16 17 16 16 15 15 15 15 14 14 14 13 13 13 13 13 13 14 15 16 17 18 18 18
15 15 14 14 15 15 15 16 17 17 17 16 17 17 16 16 16 16 17 17 17 17 17 16 16 16 15 15 14 14 14 14 14 14 14 15 16 17 17 18 18 18 18
16 16 16 16 16 16 17 18 18 18 17 17 18 18 17 17 17 17 17 18 18 18 18 17 17 17 16 16 16 16 16 16 16 16 16 16 18 18 19 19 19 19 19
18 17 17 18 18 18 18 19 19 19 19 18 18 18 18 18 18 18 18 19 19 19 18 18 18 17 17 17 17 17 17 17 17 17 18 19 19 20 20 20 21 20 20
21 20 19 19 19 19 19 20 20 20 20 20 19 18 18 19 19 19 19 19 19 19 19 19 19 18 18 18 18 18 19 19 19 19 19 20 20 20 21 21 21 21 21
23 22 21 20 20 21 21 21 21 21 21 21 20 19 19 19 20 20 20 20 20 20 20 20 20 19 19 19 19 19 20 20 20 20 20 20 20 21 21 21 20 20 21
25 24 23 22 22 22 22 22 22 22 22 22 21 21 20 20 20 20 21 21 21 21 21 21 21 20 20 20 20 20 20 21 21 20 21 21 21 21 22 21 21 21 21
26 25 25 24 23 23 23 23 24 23 23 23 23 23 22 22 21 21 22 22 22 22 22 21 21 21 20 20 21 21 21 21 21 21 21 21 21 21 22 22 21 22 22
27 27 26 25 25 25 25 25 25 25 24 24 24 24 24 23 23 23 23 23 23 23 23 22 22 21 21 22 22 22 22 22 22 22 22 22 21 22 22 22 22 22 22
29 27 27 27 27 27 26 26 26 26 26 25 24 25 25 24 25 24 24 24 23 23 23 23 22 22 22 23 23 23 23 23 23 23 23 22 22 22 22 22 22 23 23
29 28 28 28 28 28 28 28 27 27 27 26 26 25 25 25 26 25 25 25 24 24 23 23 23 22 23 23 24 24 24 24 24 23 23 23 23 22 22 22 23 23 24
30 29 29 29 29 29 29 29 29 28 28 27 26 26 26 26 26 26 25 25 24 24 24 24 24 23 24 24 24 24 24 24 24 23 23 23 23 24 24 24 24 24 24
31 31 31 31 31 31 30 30 29 29 28 28 28 27 27 27 27 26 26 25 25 26 26 25 25 25 25 25 25 25 25 25 24 24 24 24 24 24 24 25 26 25 25
31 31 31 32 32 32 31 30 30 29 29 29 28 28 28 27 26 26 26 26 26 26 27 26 26 26 26 26 26 26 26 26 25 25 24 25 25 25 25 26 26 25 26
Wind_Direction
37 38 39 40 40 40 40 41 42 41 38 35 33 31 26 24 23 24 14 18 14 1 356 350 344 343 337 328 316 313 308 303 298 300 305 305 301 300 297 296 295 295 294
34 36 38 38 37 37 37 37 35 34 34 31 29 26 21 18 18 16 12 10 2 352 345 344 341 338 330 328 320 314 309 302 298 294 293 297 299 300 301 303 302 298 295
30 32 34 34 33 33 32 32 30 30 31 28 26 24 22 20 17 12 10 7 351 344 344 338 334 331 326 325 318 317 314 305 301 298 295 295 295 300 302 302 300 299 297
24 25 26 27 27 27 26 26 25 25 25 25 23 21 21 16 13 10 5 359 353 345 337 332 327 322 318 319 316 311 309 304 301 301 298 296 298 300 302 301 299 297 299
14 17 19 21 21 22 22 22 21 20 18 17 17 15 14 11 8 6 4 358 355 347 340 331 326 318 314 310 308 306 300 299 300 300 298 296 299 303 304 303 301 299 299
2 8 12 15 16 17 18 16 15 15 15 13 11 9 7 7 3 0 359 355 352 347 343 336 331 323 316 309 305 304 299 298 297 299 300 299 299 302 305 305 304 303 301
348 355 2 6 10 11 10 9 9 9 8 8 7 6 4 1 359 357 355 354 350 347 342 335 330 327 319 311 307 305 303 301 299 299 300 301 301 302 303 305 306 305 303
339 347 353 357 360 2 4 4 4 3 4 3 1 1 0 358 357 355 353 351 349 348 344 338 331 327 322 314 308 305 305 305 302 300 300 302 302 303 304 306 306 306 305
329 332 340 346 349 351 354 356 357 357 357 357 357 357 356 355 353 351 350 350 351 349 343 340 335 331 326 318 312 308 305 302 302 301 301 302 303 304 305 305 305 307 309
317 321 330 333 338 342 345 347 351 351 351 352 353 352 350 350 350 349 349 349 349 347 346 345 340 335 332 328 322 316 310 303 300 301 302 304 304 306 306 305 308 308 307
306 313 317 323 329 332 334 337 341 342 343 345 348 349 347 346 345 345 346 346 345 343 342 342 340 338 335 332 326 319 316 313 308 306 305 305 306 306 306 307 309 308 309
296 301 306 313 321 325 326 329 332 334 335 337 341 344 343 341 340 340 339 340 340 340 341 340 338 338 336 335 333 329 324 321 317 314 311 309 309 310 310 309 308 307 307
287 291 296 304 311 317 320 323 327 330 331 331 332 336 339 338 338 339 339 337 335 334 334 336 335 334 333 332 333 333 331 328 322 317 314 313 313 313 312 312 311 309 309
281 284 289 295 302 308 313 318 322 325 327 327 327 329 331 331 332 333 334 333 331 331 332 330 330 329 329 328 327 326 326 326 324 320 318 316 315 315 314 313 313 312 311
277 280 284 287 294 299 306 313 316 319 321 322 323 324 325 326 328 329 329 328 328 328 328 327 326 325 323 322 321 321 322 322 321 320 317 315 314 313 312 312 312 312 311
276 277 280 283 289 294 300 307 309 311 314 316 317 318 319 320 322 324 325 325 325 325 325 325 324 321 319 318 318 318 319 319 319 318 317 315 315 314 314 313 311 310 309
273 276 278 283 287 291 295 300 302 305 308 309 310 312 313 314 316 318 320 322 323 324 324 323 322 321 318 317 317 316 317 317 317 318 318 317 317 317 315 313 310 307 306
271 275 279 281 285 289 292 295 297 300 303 304 305 307 308 309 312 315 316 318 320 321 321 321 321 319 317 316 316 316 316 316 316 317 317 318 317 318 318 315 312 309 308
268 272 276 279 283 287 290 292 295 298 299 300 301 303 304 305 307 310 313 314 316 317 318 317 319 318 317 316 315 316 315 316 316 316 317 317 317 316 316 316 314 311 309
268 270 273 276 280 284 287 290 293 296 296 296 296 298 300 302 303 306 309 311 313 314 315 314 315 316 315 315 314 315 314 314 314 314 315 316 315 315 315 314 313 311 309
267 269 271 275 278 280 284 287 291 293 293 294 292 293 295 298 299 302 304 306 308 310 312 312 313 313 312 313 313 312 311 311 311 313 315 315 315 315 314 314 313 312 311
264 267 270 274 276 278 280 284 288 290 291 292 292 293 293 295 296 298 300 301 303 305 308 309 310 310 310 310 311 311 309 310 311 311 313 315 316 317 316 315 314 313 312
264 265 269 272 275 278 281 282 286 287 288 289 290 292 293 293 295 296 298 298 299 301 303 306 308 308 309 309 309 309 309 309 310 310 310 312 314 316 316 315 315 314 313
264 264 267 271 275 278 281 282 284 284 284 285 288 290 291 292 293 294 295 295 296 298 300 302 304 306 308 308 308 308 309 310 310 309 309 310 311 313 314 314 315 314 314
262 263 266 270 273 276 279 281 282 282 283 284 285 286 289 290 292 292 291 292 294 296 298 299 300 303 305 306 306 307 308 308 308 308 308 307 309 310 312 314 315 315 315
262 263 266 268 271 274 276 278 280 280 281 283 284 285 287 289 290 290 290 290 292 294 297 298 300 301 303 303 305 306 306 306 306 306 306 307 307 309 311 313 313 314 315
Height
5925 5923 5921 5920 5919 5917 5916 5914 5913 5912 5911 5910 5909 5908 5907 5906 5905 5904 5903 5902 5902 5901 5900 5900 5900 5900 5899 5898 5898 5898 5897 5897 5896 5896 5896 5895 5894 5894 5893 5893 5892 5892 5891
5928 5926 5924 5923 5921 5920 5918 5917 5915 5914 5912 5911 5910 5909 5908 5906 5905 5904 5903 5902 5902 5902 5901 5901 5900 5899 5899 5898 5897 5897 5896 5896 5895 5895 5894 5894 5893 5892 5891 5891 5890 5889 5889
5930 5928 5926 5925 5923 5922 5920 5918 5917 5916 5914 5913 5911 5910 5909 5907 5906 5905 5904 5903 5902 5901 5901 5900 5899 5898 5898 5897 5896 5896 5895 5894 5894 5893 5892 5892 5891 5890 5889 5888 5888 5887 5886
5931 5929 5928 5927 5925 5924 5922 5920 5919 5917 5916 5914 5913 5911 5910 5908 5907 5906 5904 5903 5902 5901 5900 5899 5897 5897 5897 5896 5895 5895 5894 5893 5892 5891 5890 5890 5889 5888 5887 5886 5885 5884 5883
5932 5931 5929 5928 5926 5925 5923 5922 5920 5919 5917 5915 5914 5912 5910 5909 5907 5906 5904 5903 5902 5900 5899 5898 5896 5896 5896 5895 5894 5893 5892 5891 5890 5889 5889 5887 5886 5885 5885 5883 5882 5881 5880
5933 5932 5930 5929 5927 5926 5924 5923 5921 5920 5918 5916 5914 5913 5911 5909 5908 5906 5905 5903 5901 5900 5898 5897 5896 5895 5894 5893 5892 5891 5890 5889 5888 5887 5886 5885 5884 5883 5882 5880 5879 5878 5876
5934 5932 5931 5930 5928 5927 5925 5924 5922 5920 5919 5917 5915 5913 5911 5910 5908 5906 5904 5903 5901 5899 5898 5896 5895 5894 5893 5892 5890 5889 5888 5887 5886 5885 5883 5882 5881 5880 5878 5877 5876 5874 5873
5933 5932 5932 5930 5929 5927 5926 5924 5923 5921 5919 5917 5915 5913 5911 5909 5908 5906 5904 5902 5900 5898 5897 5895 5894 5892 5891 5889 5888 5887 5885 5884 5883 5882 5880 5879 5878 5876 5875 5874 5872 5870 5869
5933 5933 5932 5930 5929 5928 5926 5925 5923 5921 5919 5917 5915 5913 5911 5909 5907 5906 5904 5902 5900 5898 5896 5894 5893 5891 5889 5887 5886 5884 5883 5881 5880 5879 5877 5876 5874 5873 5871 5870 5868 5867 5866
5933 5931 5931 5930 5929 5928 5926 5925 5923 5921 5919 5917 5915 5913 5911 5909 5907 5905 5903 5901 5899 5897 5895 5893 5891 5889 5887 5885 5883 5881 5880 5878 5877 5875 5874 5873 5871 5870 5868 5866 5865 5863 5862
5931 5931 5930 5929 5928 5927 5926 5924 5922 5921 5919 5917 5914 5912 5910 5908 5907 5904 5902 5901 5899 5896 5894 5892 5890 5888 5886 5883 5881 5879 5877 5875 5874 5872 5871 5870 5868 5866 5865 5863 5861 5860 5858
5929 5929 5928 5928 5927 5926 5924 5923 5921 5920 5918 5916 5914 5912 5910 5908 5906 5904 5901 5900 5898 5895 5893 5891 5889 5887 5884 5882 5879 5877 5875 5873 5871 5870 5868 5867 5865 5863 5861 5860 5858 5856 5854
5928 5927 5927 5926 5925 5924 5923 5922 5920 5918 5916 5914 5913 5911 5909 5907 5905 5903 5901 5899 5896 5894 5892 5890 5888 5885 5882 5880 5878 5875 5873 5871 5869 5867 5866 5864 5862 5860 5858 5856 5854 5852 5850
5925 5925 5925 5925 5923 5922 5921 5920 5918 5916 5915 5913 5911 5909 5907 5906 5904 5902 5899 5897 5895 5892 5890 5888 5885 5883 5881 5878 5876 5874 5871 5869 5867 5865 5863 5861 5859 5857 5854 5852 5850 5848 5846
5922 5922 5922 5922 5921 5920 5919 5917 5916 5914 5912 5911 5909 5907 5905 5904 5902 5900 5897 5895 5892 5890 5888 5885 5883 5881 5878 5876 5874 5872 5869 5867 5865 5862 5860 5857 5855 5853 5850 5848 5846 5844 5842
5918 5918 5918 5918 5918 5917 5916 5914 5913 5911 5910 5908 5906 5905 5903 5901 5899 5897 5895 5892 5890 5888 5885 5883 5880 5878 5876 5873 5871 5869 5866 5864 5861 5859 5857 5854 5851 5849 5846 5844 5841 5839 5837
5913 5914 5914 5914 5914 5913 5912 5911 5909 5908 5906 5905 5903 5901 5900 5898 5896 5894 5892 5889 5887 5885 5882 5880 5877 5875 5873 5870 5868 5865 5863 5860 5858 5855 5853 5850 5847 5844 5842 5839 5837 5835 5832
5908 5909 5909 5909 5909 5909 5908 5907 5906 5904 5903 5901 5899 5898 5896 5894 5893 5891 5888 5886 5884 5882 5879 5877 5874 5872 5869 5867 5864 5862 5859 5856 5854 5851 5848 5846 5843 5840 5837 5835 5832 5830 5827
5903 5903 5904 5904 5904 5904 5903 5903 5901 5900 5898 5897 5895 5893 5892 5890 5889 5887 5885 5882 5880 5878 5876 5873 5871 5868 5866 5863 5861 5858 5855 5853 5850 5847 5844 5841 5839 5836 5833 5830 5828 5825 5823
5897 5898 5898 5898 5898 5898 5898 5897 5896 5895 5894 5892 5890 5889 5887 5885 5884 5882 5880 5878 5876 5874 5872 5869 5867 5864 5862 5859 5857 5854 5851 5849 5846 5843 5840 5837 5834 5831 5828 5826 5823 5821 5818
5890 5891 5892 5892 5892 5892 5892 5891 5890 5889 5888 5886 5885 5883 5882 5880 5878 5877 5875 5873 5871 5869 5867 5865 5863 5860 5858 5855 5852 5850 5847 5844 5842 5839 5836 5833 5830 5827 5824 5821 5818 5816 5813
5883 5884 5885 5886 5886 5886 5886 5885 5884 5883 5882 5880 5879 5877 5876 5874 5873 5871 5870 5868 5866 5864 5862 5860 5858 5856 5853 5851 5848 5845 5843 5840 5837 5834 5832 5828 5825 5822 5819 5816 5813 5810 5807
5876 5877 5878 5878 5879 5879 5879 5878 5877 5876 5875 5874 5873 5871 5870 5869 5867 5866 5864 5862 5860 5859 5857 5855 5853 5851 5848 5846 5843 5840 5838 5835 5832 5829 5827 5824 5821 5818 5815 5811 5808 5805 5802
5868 5869 5870 5871 5871 5872 5871 5870 5870 5869 5868 5867 5866 5865 5864 5862 5861 5859 5858 5857 5855 5853 5851 5849 5847 5845 5843 5840 5838 5835 5833 5830 5827 5824 5821 5819 5816 5813 5810 5806 5803 5800 5796
5860 5861 5863 5863 5864 5864 5863 5863 5862 5861 5861 5860 5859 5858 5857 5855 5854 5853 5851 5850 5849 5847 5845 5843 5841 5839 5837 5835 5832 5829 5827 5824 5822 5819 5816 5813 5811 5808 5804 5801 5798 5794 5791
5852 5853 5854 5855 5855 5855 5855 5855 5854 5853 5853 5852 5852 5851 5849 5848 5847 5845 5844 5843 5842 5840 5838 5836 5835 5833 5831 5828 5826 5824 5821 5818 5816 5813 5811 5808 5805 5802 5799 5796 5792 5788 5785